Content
SEND FEEDBACK

Daily
Averages
Monthly
Summary
United States of America

BLACK HAWK, SOUTH DAKOTA


Home > North America > United States > South Dakota
Elevation: 3352 feet     Latitude: 44 05N     Longitude: 103 16W

WEATHER
 
SELECT A DAY
Number of Records: 204,116;   Date Range: 1/1/95 - 7/29/14
 
SHARE

PRINT THIS DATA

[ ← Previous Day ]
WEATHER ALMANAC - APRIL 26, 2013
[ Next Day → ]
[ °C ]   °F
Weather ElementAverageHighLow
Temperature56 °F69.8 °F (4:58 pm)34.5 °F (5:58 am)
Dewpoint29.2 °F34.3 °F (8:58 am)26.1 °F (5:58 am)
Humidity39.5 %71 % (5:58 am)21 % (4:58 pm)
Barometer30.08 in30.14 in (11:58 am)29.98 in (1:58 am)
Wind Speed5.7 mph9.2 mph (1:58 am)
Weather ElementAverage
Visibility10 mi
Wind DirectionSSW (195.7 °)

Weather ElementTotal
Precipitation---
Heating Degree Days12.9 (Base 65)
Growing Degree Days2.2 (Base 50)
Averaged from 23 records on April 26, 2013
WEATHER CONDITIONS BREAKOUT
WIND DIRECTION BREAKOUT
WEATHER BY HOUR - APRIL 26, 2013
[ °C ]   °F
Local TimeTemperatureDewpointHumidityBarometerVisibilityWind DirectionWind SpeedGust SpeedPrecipitationEventsConditions
1:58 AM39.9 °F27.5 °F61 %29.98 in10.0 miWNW (290°)9.2 mphClear
2:58 AM40.3 °F26.6 °F58 %29.99 in10.0 miWest (270°)3.5 mphClear
3:58 AM37.8 °F26.2 °F63 %30.01 in10.0 miWNW (290°)5.8 mphClear
4:58 AM35.2 °F26.4 °F70 %30.02 in10.0 miWest (280°)6.9 mphClear
5:58 AM34.5 °F26.1 °F71 %30.05 in10.0 miWest (280°)9.2 mphClear
6:58 AM41.2 °F27.5 °F58 %30.06 in10.0 miWest (280°)4.6 mphClear
7:58 AM49.8 °F30.7 °F48 %30.08 in10.0 miWest (270°)2.3 mphPartly Cloudy
8:58 AM57.7 °F34.3 °F41 %30.09 in10.0 miWNW (300°)3.5 mphClear
9:58 AM62.4 °F27.1 °F26 %30.10 in10.0 miSSW (210°)2.3 mphClear
10:58 AM65.7 °F27.3 °F24 %30.13 in10.0 miNorth (350°)6.9 mphClear
11:58 AM67.3 °F27.1 °F22 %30.14 in10.0 miNNE (20°)8.1 mphPartly Cloudy
12:58 PM67.3 °F27.1 °F22 %30.13 in10.0 miVariable3.5 mphOvercast
1:58 PM67.1 °F27.1 °F22 %30.13 in10.0 miVariable1.2 mphMostly Cloudy
2:58 PM68.7 °F29.7 °F23 %30.11 in10.0 miSouth (180°)5.8 mphClear
3:58 PM69.6 °F28.4 °F22 %30.11 in10.0 miSW (220°)8.1 mphClear
4:58 PM69.8 °F27.9 °F21 %30.10 in10.0 miVariable4.6 mphClear
5:58 PM69.1 °F30.2 °F24 %30.10 in10.0 miSSE (150°)8.1 mphClear
6:58 PM66.2 °F32.0 °F28 %30.09 in10.0 miSouth (170°)6.9 mphClear
7:58 PM59.9 °F33.6 °F37 %30.08 in10.0 miSSE (150°)8.1 mphClear
8:58 PM55.8 °F33.8 °F44 %30.08 in10.0 miSSE (150°)6.9 mphClear
9:58 PM55.2 °F31.5 °F40 %30.09 in10.0 miSSW (200°)4.6 mphClear
10:58 PM55.0 °F31.6 °F41 %30.08 in10.0 miWSW (240°)5.8 mphClear
11:58 PM53.2 °F30.9 °F43 %30.07 in10.0 miSSW (200°)5.8 mphClear
Hourly data recorded from KRCA, located miles away from Black Hawk, South Dakota







STORIES FROM OUR PARTNERS